Погода в Соллефтео

Швеция     63°10′19″N   17°15′19″E
темп.,
°C
ветер,
м/с
пор.,
м/с
влажн.,
%
обл.,
%
осадки,
мм/ч
давл.,
гПа
погр.,
м
26 октября, вт
вт2623:00+1ююв119764 0.0 100329
02:00+1юз119862 0.0 100210
05:00+1зюз119790 0.0 100210
08:00+1сз1196100 0.0 100110
11:00+4зюз019299 0.0 100153
14:00+4сз1293100 0.0 100090
17:00+3зсз2594100 0.0 1001201
20:00+4зсз289694 0.1 1002288
27 октября, ср
ср2723:00+3зсз25935 0.0 1003130
02:00+1зюз119534 0.0 100414
05:000юз1195100 0.0 100311
08:00+1юв2295100 0.0 100131
11:00+3вюв2691100 0.1 999219
14:00+3в1399100 3.2 997217
17:00+3с1199100 1.2 99822
20:00+3зсз119881 1.3 100125
28 октября, чт
чт2823:00+4юз1194100 0.0 100414
02:00+3зюз119437 0.0 100612
05:00+2ююз11955 0.0 100811
08:00+3ююв2294100 0.0 100922
11:00+6ююв31186100 0.0 1009421
14:00+8ююв41281100 0.0 1006532
17:00+7ююв31298100 3.8 1004631
20:00+8ююз21197100 4.0 1003537
29 октября, пт
пт2923:00+7юз1196100 0.0 100412
02:00+7зюз1195100 0.0 100611
05:00+7юз1193100 0.0 100710
08:00+7юв2292100 0.0 100642
11:00+9ю3109280 0.0 1005563
14:00+11ююз4107678 0.0 10041031
17:00+8ю27905 0.0 1002139
20:00+7ю279229 0.0 1002165
30 октября, сб
сб3023:00+7ююз39909 0.0 1002289
02:00+7ююз299120 0.0 1001235
05:00+7ю279199 0.0 1001164
08:00+7ю2692100 0.0 1000156
11:00+8ююв278892 0.0 999280
14:00+10ю3108018 0.0 998642
17:00+8ююз41087100 0.0 997588
20:00+9ююз41186100 0.0 996512